Time,TemperatureF,DewpointF,PressureIn,WindDirection,WindDirectionDegrees,WindSpeedMPH,WindSpeedGustMPH,Humidity,HourlyPrecipIn,Conditions,Clouds,dailyrainin,SoftwareType,DateUTC
2013-03-01 00:02:00,62.0,55.0,29.93,SW,219,0.0,0.0,78,0.00,,,0.00,,2013-03-01 05:02:00,
2013-03-01 00:11:00,62.0,55.0,29.93,SW,219,0.0,0.0,78,0.00,,,0.00,,2013-03-01 05:11:00,
2013-03-01 00:22:00,62.0,55.0,29.93,West,261,0.0,0.0,79,0.00,,,0.00,,2013-03-01 05:22:00,
2013-03-01 00:32:00,62.0,56.0,29.93,WSW,245,0.0,0.0,80,0.00,,,0.00,,2013-03-01 05:32:00,
2013-03-01 00:42:00,62.0,56.0,29.93,WSW,245,0.0,0.0,80,0.00,,,0.00,,2013-03-01 05:42:00,
2013-03-01 00:53:00,62.0,56.0,29.93,SW,232,0.0,3.0,80,0.00,,,0.00,,2013-03-01 05:53:00,
2013-03-01 01:02:00,62.0,56.0,29.93,West,273,0.0,0.0,80,0.00,,,0.00,,2013-03-01 06:02:00,
2013-03-01 01:12:00,62.0,56.0,29.93,WNW,299,0.0,0.0,80,0.00,,,0.00,,2013-03-01 06:12:00,
2013-03-01 01:22:00,62.0,56.0,29.93,WNW,299,0.0,0.0,80,0.00,,,0.00,,2013-03-01 06:22:00,
2013-03-01 01:32:00,62.0,56.0,29.92,West,274,0.0,2.0,80,0.00,,,0.00,,2013-03-01 06:32:00,
2013-03-01 01:42:00,62.0,56.0,29.92,West,274,0.0,2.0,80,0.00,,,0.00,,2013-03-01 06:42:00,
2013-03-01 01:53:00,62.0,56.0,29.91,WNW,295,0.0,0.0,80,0.00,,,0.00,,2013-03-01 06:53:00,
2013-03-01 02:02:00,62.0,56.0,29.91,WNW,287,0.0,0.0,80,0.00,,,0.00,,2013-03-01 07:02:00,
2013-03-01 02:12:00,62.0,56.0,29.91,WNW,287,0.0,0.0,80,0.00,,,0.00,,2013-03-01 07:12:00,
2013-03-01 02:22:00,62.0,56.0,29.91,SE,131,0.0,0.0,80,0.00,,,0.00,,2013-03-01 07:22:00,
2013-03-01 02:32:00,62.0,56.0,29.91,NNE,12,0.0,2.0,81,0.00,,,0.00,,2013-03-01 07:32:00,
2013-03-01 02:42:00,62.0,56.0,29.91,NNE,12,0.0,2.0,81,0.00,,,0.00,,2013-03-01 07:42:00,
2013-03-01 02:52:00,62.0,56.0,29.91,ESE,112,0.0,0.0,81,0.00,,,0.00,,2013-03-01 07:52:00,
2013-03-01 03:02:00,62.0,56.0,29.90,WSW,255,0.0,1.0,81,0.00,,,0.00,,2013-03-01 08:02:00,
2013-03-01 03:12:00,62.0,56.0,29.90,WSW,255,0.0,1.0,81,0.00,,,0.00,,2013-03-01 08:12:00,
2013-03-01 03:22:00,62.0,56.0,29.90,NW,318,0.0,3.0,81,0.00,,,0.00,,2013-03-01 08:22:00,
2013-03-01 03:32:00,62.0,56.0,29.91,WNW,288,2.0,3.0,81,0.00,,,0.00,,2013-03-01 08:32:00,
2013-03-01 03:42:00,62.0,56.0,29.91,WNW,288,2.0,3.0,81,0.00,,,0.00,,2013-03-01 08:42:00,
2013-03-01 03:53:00,62.0,56.0,29.91,North,350,1.0,3.0,81,0.00,,,0.00,,2013-03-01 08:53:00,
2013-03-01 04:02:00,62.0,56.0,29.91,West,281,2.0,3.0,81,0.00,,,0.00,,2013-03-01 09:02:00,
2013-03-01 04:12:00,62.0,56.0,29.91,West,281,2.0,3.0,81,0.00,,,0.00,,2013-03-01 09:12:00,
2013-03-01 04:22:00,62.0,56.0,29.91,WNW,298,2.0,3.0,81,0.00,,,0.00,,2013-03-01 09:22:00,
2013-03-01 04:32:00,62.0,56.0,29.91,NNW,337,1.0,2.0,81,0.00,,,0.00,,2013-03-01 09:32:00,
2013-03-01 04:42:00,62.0,56.0,29.91,NNW,337,1.0,2.0,81,0.00,,,0.00,,2013-03-01 09:42:00,
2013-03-01 04:52:00,62.0,56.0,29.91,West,259,2.0,6.0,80,0.00,,,0.00,,2013-03-01 09:52:00,
2013-03-01 05:02:00,62.0,56.0,29.91,SSW,213,1.0,6.0,80,0.00,,,0.00,,2013-03-01 10:02:00,
2013-03-01 05:11:00,62.0,56.0,29.91,SSW,213,1.0,6.0,80,0.00,,,0.00,,2013-03-01 10:11:00,
2013-03-01 05:22:00,62.0,56.0,29.92,WNW,282,0.0,2.0,80,0.00,,,0.00,,2013-03-01 10:22:00,
2013-03-01 05:32:00,62.0,55.0,29.91,NNW,329,1.0,1.0,79,0.00,,,0.00,,2013-03-01 10:32:00,
2013-03-01 05:42:00,62.0,55.0,29.91,NNW,329,1.0,1.0,79,0.00,,,0.00,,2013-03-01 10:42:00,
2013-03-01 05:53:00,62.0,56.0,29.91,WNW,283,0.0,2.0,80,0.00,,,0.00,,2013-03-01 10:53:00,
2013-03-01 06:01:00,61.0,54.0,29.92,WNW,291,3.0,5.0,77,0.00,,,0.00,,2013-03-01 11:01:00,
2013-03-01 06:11:00,61.0,54.0,29.92,WNW,291,3.0,5.0,77,0.00,,,0.00,,2013-03-01 11:11:00,
2013-03-01 06:22:00,61.0,52.0,29.93,ENE,57,2.0,5.0,73,0.00,,,0.00,,2013-03-01 11:22:00,
2013-03-01 06:32:00,61.0,53.0,29.93,NW,308,2.0,3.0,74,0.00,,,0.00,,2013-03-01 11:32:00,
2013-03-01 06:42:00,61.0,53.0,29.93,NW,308,2.0,3.0,74,0.00,,,0.00,,2013-03-01 11:42:00,
2013-03-01 06:52:00,60.0,51.0,29.93,NNE,22,3.0,5.0,72,0.00,,,0.00,,2013-03-01 11:52:00,
2013-03-01 07:02:00,60.0,50.0,29.93,East,90,3.0,6.0,70,0.00,,,0.00,,2013-03-01 12:02:00,
2013-03-01 07:11:00,60.0,50.0,29.93,East,90,3.0,6.0,70,0.00,,,0.00,,2013-03-01 12:11:00,
2013-03-01 07:21:00,60.0,50.0,29.93,NNE,12,2.0,5.0,70,0.00,,,0.00,,2013-03-01 12:21:00,
2013-03-01 07:32:00,60.0,49.0,29.94,NNW,347,4.0,7.0,68,0.00,,,0.00,,2013-03-01 12:32:00,
2013-03-01 07:42:00,60.0,49.0,29.94,NNW,347,4.0,7.0,68,0.00,,,0.00,,2013-03-01 12:42:00,
2013-03-01 07:52:00,60.0,49.0,29.95,NW,319,1.0,3.0,68,0.00,,,0.00,,2013-03-01 12:52:00,
2013-03-01 08:01:00,60.0,49.0,29.95,North,7,3.0,6.0,67,0.00,,,0.00,,2013-03-01 13:01:00,
2013-03-01 08:11:00,60.0,49.0,29.96,SSW,200,4.0,6.0,68,0.00,,,0.00,,2013-03-01 13:11:00,
2013-03-01 08:22:00,60.0,49.0,29.96,SSW,200,4.0,6.0,68,0.00,,,0.00,,2013-03-01 13:22:00,
2013-03-01 08:32:00,60.0,49.0,29.96,NNW,332,2.0,3.0,68,0.00,,,0.00,,2013-03-01 13:32:00,
2013-03-01 08:42:00,60.0,49.0,29.96,NNW,332,2.0,3.0,68,0.00,,,0.00,,2013-03-01 13:42:00,
2013-03-01 08:52:00,60.0,49.0,29.96,NE,52,2.0,3.0,67,0.00,,,0.00,,2013-03-01 13:52:00,
2013-03-01 09:01:00,61.0,50.0,29.96,ENE,67,3.0,5.0,67,0.00,,,0.00,,2013-03-01 14:01:00,
2013-03-01 09:11:00,61.0,50.0,29.96,ENE,67,3.0,5.0,67,0.00,,,0.00,,2013-03-01 14:11:00,
2013-03-01 09:22:00,61.0,50.0,29.95,NW,316,3.0,7.0,67,0.00,,,0.00,,2013-03-01 14:22:00,
2013-03-01 09:32:00,62.0,50.0,29.96,NNE,26,2.0,5.0,65,0.00,,,0.00,,2013-03-01 14:32:00,
2013-03-01 09:42:00,62.0,50.0,29.96,NNE,26,2.0,5.0,65,0.00,,,0.00,,2013-03-01 14:42:00,
2013-03-01 09:52:00,62.0,50.0,29.97,WNW,294,1.0,6.0,64,0.00,,,0.00,,2013-03-01 14:52:00,
2013-03-01 10:02:00,62.0,50.0,29.97,NW,313,2.0,6.0,64,0.00,,,0.00,,2013-03-01 15:02:00,
2013-03-01 10:11:00,62.0,49.0,29.98,NNW,346,3.0,6.0,63,0.00,,,0.00,,2013-03-01 15:11:00,
2013-03-01 10:21:00,62.0,49.0,29.98,NNW,346,3.0,6.0,63,0.00,,,0.00,,2013-03-01 15:21:00,
2013-03-01 10:32:00,63.0,50.0,29.98,North,352,1.0,3.0,62,0.00,,,0.00,,2013-03-01 15:32:00,
2013-03-01 10:42:00,63.0,50.0,29.98,North,352,1.0,3.0,62,0.00,,,0.00,,2013-03-01 15:42:00,
2013-03-01 10:52:00,63.0,49.0,29.98,NNE,31,3.0,6.0,60,0.00,,,0.00,,2013-03-01 15:52:00,
2013-03-01 11:01:00,65.0,50.0,29.98,WNW,287,2.0,3.0,58,0.00,,,0.00,,2013-03-01 16:01:00,
2013-03-01 11:11:00,65.0,50.0,29.98,WNW,287,2.0,3.0,58,0.00,,,0.00,,2013-03-01 16:11:00,
2013-03-01 11:21:00,66.0,49.0,29.97,SW,223,3.0,5.0,54,0.00,,,0.00,,2013-03-01 16:21:00,
2013-03-01 11:32:00,65.0,48.0,29.97,East,87,2.0,3.0,55,0.00,,,0.00,,2013-03-01 16:32:00,
2013-03-01 11:42:00,65.0,48.0,29.97,East,87,2.0,3.0,55,0.00,,,0.00,,2013-03-01 16:42:00,
2013-03-01 11:52:00,66.0,49.0,29.96,SE,125,0.0,3.0,54,0.00,,,0.00,,2013-03-01 16:52:00,
2013-03-01 12:01:00,65.0,47.0,29.97,SW,227,1.0,5.0,53,0.00,,,0.00,,2013-03-01 17:01:00,
2013-03-01 12:11:00,66.0,48.0,29.97,West,270,2.0,2.0,53,0.00,,,0.00,,2013-03-01 17:11:00,
2013-03-01 12:21:00,66.0,48.0,29.97,West,270,2.0,2.0,53,0.00,,,0.00,,2013-03-01 17:21:00,
2013-03-01 12:32:00,66.0,48.0,29.96,SW,220,0.0,0.0,53,0.00,,,0.00,,2013-03-01 17:32:00,
2013-03-01 12:42:00,66.0,49.0,29.96,ENE,62,2.0,2.0,55,0.00,,,0.00,,2013-03-01 17:42:00,
2013-03-01 12:52:00,66.0,49.0,29.96,ENE,62,2.0,2.0,55,0.00,,,0.00,,2013-03-01 17:52:00,
2013-03-01 13:01:00,66.0,49.0,29.95,South,185,3.0,5.0,54,0.00,,,0.00,,2013-03-01 18:01:00,
2013-03-01 13:12:00,66.0,49.0,29.95,South,185,3.0,5.0,54,0.00,,,0.00,,2013-03-01 18:12:00,
2013-03-01 13:22:00,66.0,48.0,29.95,WNW,285,2.0,6.0,53,0.00,,,0.00,,2013-03-01 18:22:00,
2013-03-01 13:32:00,67.0,46.0,29.93,ESE,117,3.0,7.0,47,0.00,,,0.00,,2013-03-01 18:32:00,
2013-03-01 13:42:00,68.0,49.0,29.93,NNW,331,2.0,5.0,51,0.00,,,0.00,,2013-03-01 18:42:00,
2013-03-01 13:52:00,68.0,49.0,29.93,NNW,331,2.0,5.0,51,0.00,,,0.00,,2013-03-01 18:52:00,
2013-03-01 14:01:00,68.0,50.0,29.93,WSW,238,4.0,6.0,53,0.00,,,0.00,,2013-03-01 19:01:00,
2013-03-01 14:11:00,68.0,50.0,29.93,WSW,238,4.0,6.0,53,0.00,,,0.00,,2013-03-01 19:11:00,
2013-03-01 14:21:00,68.0,50.0,29.92,ESE,109,2.0,7.0,52,0.00,,,0.00,,2013-03-01 19:21:00,
2013-03-01 14:32:00,67.0,51.0,29.91,NNW,328,3.0,6.0,56,0.00,,,0.00,,2013-03-01 19:32:00,
2013-03-01 14:42:00,67.0,51.0,29.91,NNW,328,3.0,6.0,56,0.00,,,0.00,,2013-03-01 19:42:00,
2013-03-01 14:52:00,69.0,52.0,29.91,SW,220,1.0,5.0,54,0.00,,,0.00,,2013-03-01 19:52:00,
2013-03-01 15:01:00,67.0,51.0,29.91,South,184,2.0,5.0,56,0.00,,,0.00,,2013-03-01 20:01:00,
2013-03-01 15:11:00,67.0,51.0,29.91,South,184,2.0,5.0,56,0.00,,,0.00,,2013-03-01 20:11:00,
2013-03-01 15:21:00,65.0,51.0,29.91,WSW,237,3.0,6.0,60,0.00,,,0.00,,2013-03-01 20:21:00,
2013-03-01 15:32:00,67.0,52.0,29.90,SW,225,4.0,5.0,58,0.00,,,0.00,,2013-03-01 20:32:00,
2013-03-01 15:42:00,67.0,52.0,29.90,SW,225,4.0,5.0,58,0.00,,,0.00,,2013-03-01 20:42:00,
2013-03-01 15:52:00,66.0,51.0,29.90,SW,234,3.0,5.0,58,0.00,,,0.00,,2013-03-01 20:52:00,
2013-03-01 16:01:00,65.0,49.0,29.91,North,357,4.0,6.0,57,0.00,,,0.00,,2013-03-01 21:01:00,
2013-03-01 16:11:00,64.0,48.0,29.91,WNW,292,3.0,7.0,56,0.00,,,0.00,,2013-03-01 21:11:00,
2013-03-01 16:21:00,64.0,48.0,29.91,WNW,292,3.0,7.0,56,0.00,,,0.00,,2013-03-01 21:21:00,
2013-03-01 16:32:00,64.0,49.0,29.91,West,280,3.0,7.0,58,0.00,,,0.00,,2013-03-01 21:32:00,
2013-03-01 16:42:00,63.0,48.0,29.91,West,265,3.0,6.0,59,0.00,,,0.00,,2013-03-01 21:42:00,
2013-03-01 16:52:00,63.0,48.0,29.91,West,265,3.0,6.0,59,0.00,,,0.00,,2013-03-01 21:52:00,
2013-03-01 17:01:00,63.0,48.0,29.91,South,189,0.0,5.0,58,0.00,,,0.00,,2013-03-01 22:01:00,
2013-03-01 17:11:00,63.0,48.0,29.91,NNE,13,3.0,5.0,57,0.00,,,0.00,,2013-03-01 22:11:00,
2013-03-01 17:21:00,63.0,48.0,29.91,NNE,13,3.0,5.0,57,0.00,,,0.00,,2013-03-01 22:21:00,
2013-03-01 17:32:00,62.0,47.0,29.92,SW,225,3.0,5.0,58,0.00,,,0.00,,2013-03-01 22:32:00,
2013-03-01 17:42:00,62.0,47.0,29.92,SW,225,3.0,5.0,58,0.00,,,0.00,,2013-03-01 22:42:00,
2013-03-01 17:52:00,62.0,47.0,29.93,WSW,240,4.0,7.0,58,0.00,,,0.00,,2013-03-01 22:52:00,
2013-03-01 18:01:00,62.0,48.0,29.93,East,91,3.0,6.0,60,0.00,,,0.00,,2013-03-01 23:01:00,
2013-03-01 18:11:00,62.0,48.0,29.93,East,91,3.0,6.0,60,0.00,,,0.00,,2013-03-01 23:11:00,
2013-03-01 18:21:00,62.0,48.0,29.93,SW,225,3.0,5.0,61,0.00,,,0.00,,2013-03-01 23:21:00,
2013-03-01 18:32:00,61.0,48.0,29.94,East,90,2.0,5.0,62,0.00,,,0.00,,2013-03-01 23:32:00,
2013-03-01 18:41:00,61.0,48.0,29.94,East,90,2.0,5.0,62,0.00,,,0.00,,2013-03-01 23:41:00,
2013-03-01 18:52:00,61.0,48.0,29.94,NNW,341,2.0,6.0,63,0.00,,,0.00,,2013-03-01 23:52:00,
2013-03-01 19:02:00,61.0,49.0,29.94,NW,307,4.0,6.0,64,0.00,,,0.00,,2013-03-02 00:02:00,
2013-03-01 19:12:00,61.0,49.0,29.94,NW,307,4.0,6.0,64,0.00,,,0.00,,2013-03-02 00:12:00,
2013-03-01 19:22:00,60.0,49.0,29.96,West,264,1.0,5.0,68,0.00,,,0.00,,2013-03-02 00:22:00,
2013-03-01 19:32:00,60.0,49.0,29.95,NW,317,2.0,3.0,67,0.00,,,0.00,,2013-03-02 00:32:00,
2013-03-01 19:42:00,60.0,49.0,29.95,NW,317,2.0,3.0,67,0.00,,,0.00,,2013-03-02 00:42:00,
2013-03-01 19:52:00,60.0,49.0,29.96,NW,304,2.0,3.0,66,0.00,,,0.00,,2013-03-02 00:52:00,
2013-03-01 20:01:00,60.0,49.0,29.96,NNE,30,2.0,5.0,66,0.00,,,0.00,,2013-03-02 01:01:00,
2013-03-01 20:11:00,60.0,49.0,29.96,NNE,30,2.0,5.0,66,0.00,,,0.00,,2013-03-02 01:11:00,
2013-03-01 20:21:00,60.0,49.0,29.96,WNW,288,2.0,5.0,66,0.00,,,0.00,,2013-03-02 01:21:00,
2013-03-01 20:32:00,60.0,49.0,29.96,ENE,68,2.0,3.0,68,0.00,,,0.00,,2013-03-02 01:32:00,
2013-03-01 20:41:00,60.0,49.0,29.96,ENE,68,2.0,3.0,68,0.00,,,0.00,,2013-03-02 01:41:00,
2013-03-01 20:52:00,60.0,49.0,29.97,WNW,288,2.0,3.0,68,0.00,,,0.00,,2013-03-02 01:52:00,
2013-03-01 21:01:00,60.0,48.0,29.97,SSE,151,3.0,7.0,65,0.00,,,0.00,,2013-03-02 02:01:00,
2013-03-01 21:11:00,60.0,48.0,29.97,SSE,151,3.0,7.0,65,0.00,,,0.00,,2013-03-02 02:11:00,
2013-03-01 21:22:00,59.0,46.0,29.96,NW,305,3.0,6.0,63,0.00,,,0.00,,2013-03-02 02:22:00,
2013-03-01 21:32:00,59.0,47.0,29.97,ESE,123,2.0,6.0,64,0.00,,,0.00,,2013-03-02 02:32:00,
2013-03-01 21:42:00,59.0,47.0,29.97,ESE,123,2.0,6.0,64,0.00,,,0.00,,2013-03-02 02:42:00,
2013-03-01 21:52:00,59.0,47.0,29.98,WNW,283,3.0,6.0,65,0.00,,,0.00,,2013-03-02 02:52:00,
2013-03-01 22:02:00,59.0,47.0,29.97,WNW,292,1.0,3.0,64,0.00,,,0.00,,2013-03-02 03:02:00,
2013-03-01 22:11:00,59.0,47.0,29.97,WNW,292,1.0,3.0,64,0.00,,,0.00,,2013-03-02 03:11:00,
2013-03-01 22:22:00,59.0,47.0,29.98,West,266,4.0,6.0,64,0.00,,,0.00,,2013-03-02 03:22:00,
2013-03-01 22:32:00,59.0,47.0,29.98,SW,225,2.0,3.0,64,0.00,,,0.00,,2013-03-02 03:32:00,
2013-03-01 22:42:00,59.0,47.0,29.98,SW,225,2.0,3.0,64,0.00,,,0.00,,2013-03-02 03:42:00,
2013-03-01 22:52:00,58.0,46.0,29.98,NNW,335,2.0,6.0,65,0.00,,,0.00,,2013-03-02 03:52:00,
2013-03-01 23:01:00,58.0,47.0,29.98,WNW,291,1.0,3.0,66,0.00,,,0.00,,2013-03-02 04:01:00,
2013-03-01 23:11:00,58.0,47.0,29.98,North,349,2.0,7.0,67,0.00,,,0.00,,2013-03-02 04:11:00,
2013-03-01 23:22:00,58.0,47.0,29.98,North,349,2.0,7.0,67,0.00,,,0.00,,2013-03-02 04:22:00,
2013-03-01 23:32:00,58.0,47.0,29.98,NW,321,2.0,6.0,68,0.00,,,0.00,,2013-03-02 04:32:00,
2013-03-01 23:42:00,58.0,47.0,29.98,NW,321,2.0,6.0,68,0.00,,,0.00,,2013-03-02 04:42:00,
2013-03-01 23:52:00,58.0,48.0,29.96,NNW,335,3.0,5.0,69,0.00,,,0.00,,2013-03-02 04:52:00,